Home > Weather > St Helens > Past weeks

Flag for United Kingdom Past Weather in St Helens, England, United Kingdom — Yesterday and Last 2 Weeks

Now
55 °F

Clear.


Feels Like: 54 °F
Forecast: 55 / 66 °F
Wind: 6 mph from West

Location: Liverpool Airport

Current Time: Jul 28, 2016 at 12:05:46 AM

Latest Report: Jul 27, 2016 at 11:20 PM


Visibility: 10 mi

Pressure: 30.01 "Hg

Humidity: 82%

Dew Point: 50 °F

Location of St HelensLocation

Past Weather in St Helens — Graph

°F

St Helens Temperature Yesterday

Maximum temperature yesterday: 64 °F (at 11:20 AM)
Minimum temperature yesterday: 57 °F (at 10:20 PM)
Average temperature yesterday: 62 °F

High & Low Weather Summary for the Past Weeks

 TemperatureHumidityPressure
High86 °F (Jul 19, 5:20 PM)100% (Jul 16, 5:50 AM)30.30 "Hg (Jul 16, 5:50 AM)
Low52 °F (Jul 13, 2:50 AM)45% (Jul 19, 2:50 PM)29.68 "Hg (Jul 20, 5:50 AM)
Average64 °F78%30.07 "Hg
* Reported Jul 12 10:20 PM — Jul 27 10:50 PM, St Helens, Weather by CustomWeather, © 2016

Note: Actual official high and low records may vary slightly from our data, if they occured in-between our weather recording intervals... More about our weather records

Advertising

St Helens Weather History for the Previous 24 Hours

Scroll right to see more
 ConditionsComfort  
Time TempWeatherWind HumidityBarometerVisibility
10:50 PM
Wed, Jul 27
57 °FClear.6 mph77%30.01 "Hg10 mi
10:20 PM57 °FPassing clouds.7 mph77%30.01 "HgN/A
9:50 PM59 °FPassing clouds.8 mph72%30.01 "HgN/A
9:20 PM59 °FPassing clouds.7 mph72%30.01 "HgN/A
8:50 PM61 °FSunny.9 mph68%30.04 "Hg10 mi
8:20 PM61 °FPassing clouds.8 mph68%30.04 "HgN/A
7:50 PM61 °FPassing clouds.8 mph68%30.04 "HgN/A
7:20 PM61 °FPassing clouds.10 mph63%30.01 "HgN/A
6:50 PM63 °FPassing clouds.13 mph64%30.01 "HgN/A
6:20 PM63 °FPassing clouds.13 mph64%30.01 "HgN/A
5:50 PM63 °FPassing clouds.14 mph64%30.01 "HgN/A
5:20 PM63 °FScattered clouds.13 mph64%30.01 "HgN/A
4:50 PM64 °FScattered clouds.13 mph64%30.01 "HgN/A
3:50 PM64 °FScattered clouds.16 mph64%30.01 "HgN/A
3:20 PM63 °FScattered clouds.14 mph68%30.01 "HgN/A
2:50 PM64 °FScattered clouds.15 mph68%30.01 "HgN/A
1:50 PM63 °FScattered clouds.15 mph68%30.01 "HgN/A
1:20 PM63 °FPartly sunny.14 mph68%30.01 "HgN/A
12:50 PM64 °FScattered clouds.16 mph68%29.98 "HgN/A
12:20 PM63 °FScattered clouds.15 mph73%29.98 "HgN/A
11:50 AM64 °FPartly sunny.15 mph68%29.98 "HgN/A
11:20 AM64 °FPartly sunny.15 mph73%29.98 "HgN/A
10:50 AM63 °FPartly sunny.16 mph83%29.98 "HgN/A
10:20 AM63 °FPartly sunny.14 mph77%29.95 "HgN/A
9:50 AM63 °FPartly sunny.14 mph77%29.95 "HgN/A
9:20 AM63 °FPartly sunny.13 mph83%29.95 "HgN/A
8:50 AM61 °FScattered clouds.15 mph88%29.92 "HgN/A
8:20 AM63 °FScattered clouds.13 mph83%29.92 "HgN/A
7:50 AM61 °FScattered clouds.13 mph94%29.92 "HgN/A
7:20 AM61 °FScattered clouds.12 mph94%29.92 "HgN/A
6:50 AM61 °FPartly sunny.13 mph94%29.89 "HgN/A
6:20 AM61 °FDrizzle. Partly sunny.13 mph94%29.89 "Hg4 mi
5:50 AM59 °FPassing clouds.13 mph100%29.89 "Hg6 mi
5:20 AM61 °FPassing clouds.13 mph100%29.89 "Hg5 mi
4:50 AM61 °FPassing clouds.10 mph94%29.89 "Hg5 mi
4:20 AM61 °FPassing clouds.10 mph94%29.89 "Hg5 mi
3:50 AM61 °FPassing clouds.10 mph94%29.89 "HgN/A
3:20 AM63 °FPassing clouds.12 mph88%29.89 "HgN/A
2:50 AM63 °FScattered showers. Passing clouds.10 mph88%29.89 "HgN/A
2:20 AM61 °FScattered showers. Passing clouds.7 mph94%29.89 "HgN/A
1:50 AM61 °FLight rain. Passing clouds.7 mph100%29.92 "HgN/A
1:20 AM61 °FLight rain. Passing clouds.10 mph94%29.92 "HgN/A
12:50 AM63 °FLight rain. Passing clouds.8 mph94%29.92 "HgN/A
12:20 AM61 °FLight rain. Passing clouds.7 mph94%29.95 "HgN/A
Weather by CustomWeather, © 2016

See weather overviewHow to use our weather pages